Time,TemperatureF,DewpointF,PressureIn,WindDirection,WindDirectionDegrees,WindSpeedMPH,WindSpeedGustMPH,Humidity,HourlyPrecipIn,Conditions,Clouds,dailyrainin,SoftwareType,DateUTC
2013-07-27 00:02:00,70.2,68.7,29.92,East,94,0.0,0.0,95,0.00,,SKC,0.00,VWS V13.00,2013-07-27 05:02:00,
2013-07-27 00:07:00,70.1,68.6,29.92,East,94,0.0,0.0,95,0.00,,SKC,0.00,VWS V13.00,2013-07-27 05:07:00,
2013-07-27 00:12:00,70.2,68.7,29.92,East,94,0.0,0.0,95,0.00,,SKC,0.00,VWS V13.00,2013-07-27 05:12:00,
2013-07-27 00:17:00,70.2,68.7,29.92,East,94,0.0,0.0,95,0.00,,SKC,0.00,VWS V13.00,2013-07-27 05:17:00,
2013-07-27 00:22:00,70.1,68.6,29.92,East,94,0.0,0.0,95,0.00,,SKC,0.00,VWS V13.00,2013-07-27 05:22:00,
2013-07-27 00:27:00,70.0,68.5,29.91,East,94,0.0,2.0,95,0.00,,SKC,0.00,VWS V13.00,2013-07-27 05:27:00,
2013-07-27 00:32:00,70.0,68.5,29.91,East,94,0.0,2.0,95,0.00,,SKC,0.00,VWS V13.00,2013-07-27 05:32:00,
2013-07-27 00:37:00,69.9,68.4,29.91,East,94,0.0,1.0,95,0.00,,SKC,0.00,VWS V13.00,2013-07-27 05:37:00,
2013-07-27 00:42:00,69.9,68.4,29.91,East,94,0.0,1.0,95,0.00,,SKC,0.00,VWS V13.00,2013-07-27 05:42:00,
2013-07-27 00:47:00,69.9,68.4,29.91,East,94,1.0,2.0,95,0.00,,SKC,0.00,VWS V13.00,2013-07-27 05:47:00,
2013-07-27 00:52:00,70.1,68.6,29.91,East,96,0.0,4.0,95,0.00,,SKC,0.00,VWS V13.00,2013-07-27 05:52:00,
2013-07-27 00:57:00,70.3,68.8,29.91,East,96,1.0,4.0,95,0.00,,SKC,0.00,VWS V13.00,2013-07-27 05:57:00,
2013-07-27 01:02:00,70.4,68.6,29.91,East,96,0.0,4.0,94,0.00,,SKC,0.00,VWS V13.00,2013-07-27 06:02:00,
2013-07-27 01:07:00,70.5,68.7,29.90,East,101,3.0,4.0,94,0.00,,SKC,0.00,VWS V13.00,2013-07-27 06:07:00,
2013-07-27 01:12:00,70.7,68.6,29.90,East,101,1.0,4.0,93,0.00,,SKC,0.00,VWS V13.00,2013-07-27 06:12:00,
2013-07-27 01:17:00,70.8,68.7,29.90,East,101,0.0,4.0,93,0.00,,SKC,0.00,VWS V13.00,2013-07-27 06:17:00,
2013-07-27 01:22:00,70.9,68.8,29.90,East,101,0.0,4.0,93,0.00,,SKC,0.00,VWS V13.00,2013-07-27 06:22:00,
2013-07-27 01:27:00,70.9,68.8,29.90,East,101,0.0,4.0,93,0.00,,SKC,0.00,VWS V13.00,2013-07-27 06:27:00,
2013-07-27 01:32:00,70.8,68.7,29.91,East,101,0.0,4.0,93,0.00,,SKC,0.00,VWS V13.00,2013-07-27 06:32:00,
2013-07-27 01:37:00,70.7,68.6,29.91,East,101,0.0,0.0,93,0.00,,SKC,0.00,VWS V13.00,2013-07-27 06:37:00,
2013-07-27 01:42:00,70.6,68.8,29.91,East,101,0.0,0.0,94,0.00,,SKC,0.00,VWS V13.00,2013-07-27 06:42:00,
2013-07-27 01:47:00,70.5,68.7,29.91,East,101,0.0,0.0,94,0.00,,SKC,0.00,VWS V13.00,2013-07-27 06:47:00,
2013-07-27 01:52:00,70.4,68.6,29.91,East,101,0.0,0.0,94,0.00,,SKC,0.00,VWS V13.00,2013-07-27 06:52:00,
2013-07-27 01:57:00,70.3,68.5,29.91,East,101,0.0,0.0,94,0.00,,SKC,0.00,VWS V13.00,2013-07-27 06:57:00,
2013-07-27 02:02:00,70.1,68.6,29.91,East,101,0.0,0.0,95,0.00,,SKC,0.00,VWS V13.00,2013-07-27 07:02:00,
2013-07-27 02:07:00,69.9,68.4,29.91,East,101,0.0,0.0,95,0.00,,SKC,0.00,VWS V13.00,2013-07-27 07:07:00,
2013-07-27 02:12:00,69.8,68.3,29.91,East,101,0.0,0.0,95,0.00,,SKC,0.00,VWS V13.00,2013-07-27 07:12:00,
2013-07-27 02:17:00,69.8,68.3,29.91,East,101,0.0,0.0,95,0.00,,SKC,0.00,VWS V13.00,2013-07-27 07:17:00,
2013-07-27 02:22:00,69.7,68.2,29.91,East,101,0.0,0.0,95,0.00,,SKC,0.00,VWS V13.00,2013-07-27 07:22:00,
2013-07-27 02:27:00,69.5,68.0,29.90,East,101,0.0,0.0,95,0.00,,SKC,0.00,VWS V13.00,2013-07-27 07:27:00,
2013-07-27 02:32:00,69.4,67.9,29.91,East,101,0.0,0.0,95,0.00,,SKC,0.00,VWS V13.00,2013-07-27 07:32:00,
2013-07-27 02:37:00,69.2,67.7,29.91,East,101,0.0,0.0,95,0.00,,SKC,0.00,VWS V13.00,2013-07-27 07:37:00,
2013-07-27 02:42:00,69.1,67.9,29.90,East,101,0.0,0.0,96,0.00,,SKC,0.00,VWS V13.00,2013-07-27 07:42:00,
2013-07-27 02:47:00,69.0,67.8,29.90,East,101,0.0,0.0,96,0.00,,SKC,0.00,VWS V13.00,2013-07-27 07:47:00,
2013-07-27 02:52:00,68.9,67.7,29.90,East,101,0.0,0.0,96,0.00,,SKC,0.00,VWS V13.00,2013-07-27 07:52:00,
2013-07-27 02:57:00,68.9,67.7,29.90,East,101,0.0,0.0,96,0.00,,SKC,0.00,VWS V13.00,2013-07-27 07:57:00,
2013-07-27 03:02:00,68.9,68.0,29.90,East,101,0.0,0.0,97,0.00,,SKC,0.00,VWS V13.00,2013-07-27 08:02:00,
2013-07-27 03:07:00,68.8,67.9,29.90,East,101,0.0,0.0,97,0.00,,SKC,0.00,VWS V13.00,2013-07-27 08:07:00,
2013-07-27 03:12:00,68.8,67.9,29.89,East,101,0.0,0.0,97,0.00,,SKC,0.00,VWS V13.00,2013-07-27 08:12:00,
2013-07-27 03:17:00,68.8,67.9,29.89,East,101,0.0,0.0,97,0.00,,SKC,0.00,VWS V13.00,2013-07-27 08:17:00,
2013-07-27 03:22:00,68.9,68.0,29.89,East,101,0.0,0.0,97,0.00,,SKC,0.00,VWS V13.00,2013-07-27 08:22:00,
2013-07-27 03:27:00,69.0,68.1,29.88,East,101,0.0,0.0,97,0.00,,SKC,0.00,VWS V13.00,2013-07-27 08:27:00,
2013-07-27 03:32:00,68.8,67.6,29.88,East,101,0.0,0.0,96,0.00,,SKC,0.00,VWS V13.00,2013-07-27 08:32:00,
2013-07-27 03:37:00,68.6,67.4,29.88,East,101,0.0,0.0,96,0.00,,SKC,0.00,VWS V13.00,2013-07-27 08:37:00,
2013-07-27 03:42:00,68.5,67.6,29.89,East,101,0.0,0.0,97,0.00,,SKC,0.00,VWS V13.00,2013-07-27 08:42:00,
2013-07-27 03:47:00,68.5,67.6,29.89,East,101,0.0,0.0,97,0.00,,SKC,0.00,VWS V13.00,2013-07-27 08:47:00,
2013-07-27 03:52:00,68.3,67.4,29.90,East,101,0.0,0.0,97,0.00,,SKC,0.00,VWS V13.00,2013-07-27 08:52:00,
2013-07-27 03:57:00,68.2,67.3,29.90,East,101,0.0,0.0,97,0.00,,SKC,0.00,VWS V13.00,2013-07-27 08:57:00,
2013-07-27 04:02:00,68.2,67.3,29.90,East,101,0.0,0.0,97,0.00,,SKC,0.00,VWS V13.00,2013-07-27 09:02:00,
2013-07-27 04:07:00,68.2,67.3,29.90,East,101,0.0,0.0,97,0.00,,SKC,0.00,VWS V13.00,2013-07-27 09:07:00,
2013-07-27 04:12:00,68.3,67.7,29.90,East,101,0.0,0.0,98,0.00,,SKC,0.00,VWS V13.00,2013-07-27 09:12:00,
2013-07-27 04:17:00,68.3,67.7,29.90,East,101,0.0,0.0,98,0.00,,SKC,0.00,VWS V13.00,2013-07-27 09:17:00,
2013-07-27 04:22:00,68.4,67.8,29.90,East,101,0.0,0.0,98,0.00,,SKC,0.00,VWS V13.00,2013-07-27 09:22:00,
2013-07-27 04:27:00,68.4,67.8,29.90,East,101,0.0,0.0,98,0.00,,SKC,0.00,VWS V13.00,2013-07-27 09:27:00,
2013-07-27 04:32:00,68.4,67.8,29.90,East,101,0.0,0.0,98,0.00,,SKC,0.00,VWS V13.00,2013-07-27 09:32:00,
2013-07-27 04:37:00,68.3,67.4,29.90,East,101,0.0,0.0,97,0.00,,SKC,0.00,VWS V13.00,2013-07-27 09:37:00,
2013-07-27 04:42:00,68.2,67.3,29.91,East,101,0.0,0.0,97,0.00,,SKC,0.00,VWS V13.00,2013-07-27 09:42:00,
2013-07-27 04:47:00,68.1,67.2,29.91,East,101,0.0,0.0,97,0.00,,SKC,0.00,VWS V13.00,2013-07-27 09:47:00,
2013-07-27 04:52:00,68.1,67.5,29.90,East,101,0.0,0.0,98,0.00,,SKC,0.00,VWS V13.00,2013-07-27 09:52:00,
2013-07-27 04:57:00,68.0,67.4,29.90,East,101,0.0,0.0,98,0.00,,SKC,0.00,VWS V13.00,2013-07-27 09:57:00,
2013-07-27 05:02:00,67.9,67.3,29.90,East,101,0.0,0.0,98,0.00,,SKC,0.00,VWS V13.00,2013-07-27 10:02:00,
2013-07-27 05:07:00,67.9,67.3,29.90,East,101,0.0,0.0,98,0.00,,SKC,0.00,VWS V13.00,2013-07-27 10:07:00,
2013-07-27 05:12:00,67.9,67.3,29.90,East,101,0.0,0.0,98,0.00,,SKC,0.00,VWS V13.00,2013-07-27 10:12:00,
2013-07-27 05:17:00,67.9,67.3,29.90,East,101,0.0,0.0,98,0.00,,SKC,0.00,VWS V13.00,2013-07-27 10:17:00,
2013-07-27 05:22:00,67.9,67.3,29.91,East,101,0.0,0.0,98,0.00,,SKC,0.00,VWS V13.00,2013-07-27 10:22:00,
2013-07-27 05:27:00,67.9,67.3,29.90,East,101,0.0,0.0,98,0.00,,SKC,0.00,VWS V13.00,2013-07-27 10:27:00,
2013-07-27 05:32:00,67.9,67.3,29.90,East,101,0.0,0.0,98,0.00,,SKC,0.00,VWS V13.00,2013-07-27 10:32:00,
2013-07-27 05:37:00,67.9,67.3,29.90,East,101,0.0,0.0,98,0.00,,SKC,0.00,VWS V13.00,2013-07-27 10:37:00,
2013-07-27 05:42:00,68.0,67.4,29.91,East,101,0.0,0.0,98,0.00,,SKC,0.00,VWS V13.00,2013-07-27 10:42:00,
2013-07-27 05:47:00,68.1,67.5,29.91,East,101,0.0,0.0,98,0.00,,SKC,0.00,VWS V13.00,2013-07-27 10:47:00,
2013-07-27 05:52:00,68.1,67.5,29.91,East,101,0.0,0.0,98,0.00,,SKC,0.00,VWS V13.00,2013-07-27 10:52:00,
2013-07-27 05:57:00,68.0,67.4,29.91,East,101,0.0,0.0,98,0.00,,SKC,0.00,VWS V13.00,2013-07-27 10:57:00,
2013-07-27 06:02:00,68.1,67.5,29.92,East,101,0.0,0.0,98,0.00,,SKC,0.00,VWS V13.00,2013-07-27 11:02:00,
2013-07-27 06:07:00,68.0,67.4,29.91,East,101,0.0,0.0,98,0.00,,SKC,0.00,VWS V13.00,2013-07-27 11:07:00,
2013-07-27 06:12:00,68.1,67.5,29.91,East,101,0.0,0.0,98,0.00,,SKC,0.00,VWS V13.00,2013-07-27 11:12:00,
2013-07-27 06:17:00,68.2,67.6,29.91,East,101,0.0,0.0,98,0.00,,SKC,0.00,VWS V13.00,2013-07-27 11:17:00,
2013-07-27 06:22:00,68.3,67.7,29.91,ESE,102,2.0,4.0,98,0.00,,SKC,0.00,VWS V13.00,2013-07-27 11:22:00,
2013-07-27 06:27:00,68.4,67.8,29.91,ESE,102,0.0,4.0,98,0.00,,SKC,0.00,VWS V13.00,2013-07-27 11:27:00,
2013-07-27 06:32:00,68.5,67.9,29.91,ESE,102,0.0,0.0,98,0.00,,SKC,0.00,VWS V13.00,2013-07-27 11:32:00,
2013-07-27 06:37:00,68.5,67.9,29.91,ESE,102,0.0,0.0,98,0.00,,SKC,0.00,VWS V13.00,2013-07-27 11:37:00,
2013-07-27 06:42:00,68.6,68.0,29.91,ESE,102,0.0,0.0,98,0.00,,SKC,0.00,VWS V13.00,2013-07-27 11:42:00,
2013-07-27 06:47:00,68.6,68.0,29.92,ESE,102,0.0,0.0,98,0.00,,SKC,0.00,VWS V13.00,2013-07-27 11:47:00,
2013-07-27 06:52:00,68.7,68.1,29.92,ESE,102,0.0,0.0,98,0.00,,SKC,0.00,VWS V13.00,2013-07-27 11:52:00,
2013-07-27 06:57:00,68.8,68.2,29.92,ESE,103,0.0,0.0,98,0.00,,SKC,0.00,VWS V13.00,2013-07-27 11:57:00,
2013-07-27 07:02:00,68.8,68.2,29.92,ESE,103,0.0,0.0,98,0.00,,SKC,0.00,VWS V13.00,2013-07-27 12:02:00,
2013-07-27 07:07:00,68.8,68.2,29.92,ESE,103,0.0,0.0,98,0.00,,SKC,0.00,VWS V13.00,2013-07-27 12:07:00,
2013-07-27 07:12:00,69.0,68.4,29.92,ESE,103,0.0,0.0,98,0.00,,SKC,0.00,VWS V13.00,2013-07-27 12:12:00,
2013-07-27 07:17:00,69.1,68.5,29.93,ESE,103,0.0,0.0,98,0.00,,SKC,0.00,VWS V13.00,2013-07-27 12:17:00,
2013-07-27 07:22:00,69.3,69.0,29.93,East,96,2.0,2.0,99,0.00,,SKC,0.00,VWS V13.00,2013-07-27 12:22:00,
2013-07-27 07:27:00,69.5,69.2,29.93,East,96,1.0,2.0,99,0.00,,SKC,0.00,VWS V13.00,2013-07-27 12:27:00,
2013-07-27 07:32:00,69.8,69.2,29.93,SSW,209,1.0,1.0,98,0.00,,SKC,0.00,VWS V13.00,2013-07-27 12:32:00,
2013-07-27 07:37:00,70.0,69.4,29.92,South,182,2.0,5.0,98,0.00,,SKC,0.00,VWS V13.00,2013-07-27 12:37:00,
2013-07-27 07:42:00,70.3,69.4,29.92,SSE,167,2.0,6.0,97,0.00,,SKC,0.00,VWS V13.00,2013-07-27 12:42:00,
2013-07-27 07:47:00,70.3,69.4,29.92,South,173,5.0,6.0,97,0.00,,SKC,0.00,VWS V13.00,2013-07-27 12:47:00,
2013-07-27 07:52:00,70.4,69.5,29.92,South,180,2.0,6.0,97,0.00,,SKC,0.00,VWS V13.00,2013-07-27 12:52:00,
2013-07-27 07:57:00,70.6,69.7,29.92,South,169,2.0,6.0,97,0.00,,SKC,0.00,VWS V13.00,2013-07-27 12:57:00,
2013-07-27 08:02:00,70.7,69.5,29.92,South,181,1.0,2.0,96,0.00,,SKC,0.00,VWS V13.00,2013-07-27 13:02:00,
2013-07-27 08:07:00,70.8,69.6,29.93,South,182,2.0,5.0,96,0.00,,SKC,0.00,VWS V13.00,2013-07-27 13:07:00,
2013-07-27 08:12:00,71.0,69.8,29.93,South,185,0.0,5.0,96,0.00,,SKC,0.00,VWS V13.00,2013-07-27 13:12:00,
2013-07-27 08:17:00,71.1,69.9,29.93,SSW,201,3.0,5.0,96,0.00,,SKC,0.00,VWS V13.00,2013-07-27 13:17:00,
2013-07-27 08:22:00,71.2,69.7,29.93,SSW,207,0.0,5.0,95,0.00,,SKC,0.00,VWS V13.00,2013-07-27 13:22:00,
2013-07-27 08:27:00,71.3,69.8,29.93,SSW,204,4.0,5.0,95,0.00,,SKC,0.00,VWS V13.00,2013-07-27 13:27:00,
2013-07-27 08:32:00,71.4,69.9,29.93,SSW,209,0.0,0.0,95,0.00,,SKC,0.00,VWS V13.00,2013-07-27 13:32:00,
2013-07-27 08:37:00,71.5,70.0,29.93,SW,215,1.0,3.0,95,0.00,,SKC,0.00,VWS V13.00,2013-07-27 13:37:00,
2013-07-27 08:42:00,71.7,70.2,29.93,SW,215,0.0,3.0,95,0.00,,SKC,0.00,VWS V13.00,2013-07-27 13:42:00,
2013-07-27 08:47:00,71.9,70.4,29.93,SW,216,4.0,4.0,95,0.00,,SKC,0.00,VWS V13.00,2013-07-27 13:47:00,
2013-07-27 08:52:00,72.1,70.3,29.93,SSW,193,0.0,5.0,94,0.00,,SKC,0.00,VWS V13.00,2013-07-27 13:52:00,
2013-07-27 08:57:00,72.4,70.6,29.93,SW,219,4.0,5.0,94,0.00,,SKC,0.00,VWS V13.00,2013-07-27 13:57:00,
2013-07-27 09:02:00,72.5,70.4,29.93,WSW,238,4.0,4.0,93,0.00,,SKC,0.00,VWS V13.00,2013-07-27 14:02:00,
2013-07-27 09:07:00,72.7,70.2,29.93,SSW,207,1.0,5.0,92,0.00,,SKC,0.00,VWS V13.00,2013-07-27 14:07:00,
2013-07-27 09:12:00,72.8,70.3,29.93,SW,215,1.0,5.0,92,0.00,,SKC,0.00,VWS V13.00,2013-07-27 14:12:00,
2013-07-27 09:17:00,73.0,70.2,29.93,SW,221,2.0,5.0,91,0.00,,SKC,0.00,VWS V13.00,2013-07-27 14:17:00,
2013-07-27 09:22:00,73.4,70.6,29.93,SSW,210,1.0,5.0,91,0.00,,SKC,0.00,VWS V13.00,2013-07-27 14:22:00,
2013-07-27 09:27:00,73.8,70.4,29.93,SSW,212,0.0,6.0,89,0.00,,SKC,0.00,VWS V13.00,2013-07-27 14:27:00,
2013-07-27 09:32:00,74.3,71.2,29.92,SW,234,5.0,6.0,90,0.00,,SKC,0.00,VWS V13.00,2013-07-27 14:32:00,
2013-07-27 09:37:00,74.7,71.6,29.92,SW,217,0.0,6.0,90,0.00,,SKC,0.00,VWS V13.00,2013-07-27 14:37:00,
2013-07-27 09:42:00,75.0,71.2,29.92,SW,223,5.0,6.0,88,0.00,,SKC,0.00,VWS V13.00,2013-07-27 14:42:00,
2013-07-27 09:47:00,75.4,71.3,29.92,SW,225,2.0,7.0,87,0.00,,SKC,0.00,VWS V13.00,2013-07-27 14:47:00,
2013-07-27 09:52:00,75.8,71.3,29.92,SSW,211,5.0,7.0,86,0.00,,SKC,0.00,VWS V13.00,2013-07-27 14:52:00,
2013-07-27 09:57:00,76.0,70.8,29.92,SW,222,4.0,7.0,84,0.00,,SKC,0.00,VWS V13.00,2013-07-27 14:57:00,
2013-07-27 10:02:00,76.7,71.2,29.92,West,261,2.0,4.0,83,0.00,,SKC,0.00,VWS V13.00,2013-07-27 15:02:00,
2013-07-27 10:07:00,76.9,71.0,29.92,WNW,303,5.0,9.0,82,0.00,,SKC,0.00,VWS V13.00,2013-07-27 15:07:00,
2013-07-27 10:12:00,77.0,70.7,29.92,West,280,4.0,9.0,81,0.00,,SKC,0.00,VWS V13.00,2013-07-27 15:12:00,
2013-07-27 10:17:00,77.0,71.4,29.92,West,274,4.0,9.0,83,0.00,,SKC,0.00,VWS V13.00,2013-07-27 15:17:00,
2013-07-27 10:22:00,77.3,70.7,29.92,WSW,252,4.0,9.0,80,0.00,,SKC,0.00,VWS V13.00,2013-07-27 15:22:00,
2013-07-27 10:27:00,77.6,71.3,29.92,West,263,0.0,9.0,81,0.00,,SKC,0.00,VWS V13.00,2013-07-27 15:27:00,
2013-07-27 10:32:00,77.9,71.6,29.92,SW,225,4.0,5.0,81,0.00,,SKC,0.00,VWS V13.00,2013-07-27 15:32:00,
2013-07-27 10:37:00,78.5,71.8,29.91,WSW,252,1.0,7.0,80,0.00,,SKC,0.00,VWS V13.00,2013-07-27 15:37:00,
2013-07-27 10:42:00,79.2,72.1,29.91,WSW,241,1.0,8.0,79,0.00,,SKC,0.00,VWS V13.00,2013-07-27 15:42:00,
2013-07-27 10:47:00,79.4,71.9,29.91,WSW,252,6.0,8.0,78,0.00,,SKC,0.00,VWS V13.00,2013-07-27 15:47:00,
2013-07-27 10:52:00,79.4,71.9,29.91,West,281,8.0,8.0,78,0.00,,SKC,0.00,VWS V13.00,2013-07-27 15:52:00,
2013-07-27 10:57:00,79.4,71.9,29.91,West,276,7.0,9.0,78,0.00,,SKC,0.00,VWS V13.00,2013-07-27 15:57:00,
2013-07-27 11:02:00,79.1,70.9,29.92,West,281,4.0,4.0,76,0.00,,SKC,0.00,VWS V13.00,2013-07-27 16:02:00,
2013-07-27 11:07:00,79.1,71.3,29.92,West,265,1.0,7.0,77,0.00,,SKC,0.00,VWS V13.00,2013-07-27 16:07:00,
2013-07-27 11:12:00,79.3,71.5,29.92,WNW,290,5.0,11.0,77,0.00,,SKC,0.00,VWS V13.00,2013-07-27 16:12:00,
2013-07-27 11:17:00,79.6,72.1,29.91,West,275,5.0,11.0,78,0.00,,SKC,0.00,VWS V13.00,2013-07-27 16:17:00,
2013-07-27 11:22:00,79.7,71.1,29.91,West,269,5.0,11.0,75,0.00,,SKC,0.00,VWS V13.00,2013-07-27 16:22:00,
2013-07-27 11:27:00,80.3,70.5,29.91,West,264,5.0,11.0,72,0.00,,SKC,0.00,VWS V13.00,2013-07-27 16:27:00,
2013-07-27 11:32:00,80.5,69.8,29.91,WNW,297,6.0,8.0,70,0.00,,SKC,0.00,VWS V13.00,2013-07-27 16:32:00,
2013-07-27 11:37:00,80.9,71.0,29.91,WNW,284,6.0,10.0,72,0.00,,SKC,0.00,VWS V13.00,2013-07-27 16:37:00,
2013-07-27 11:42:00,81.0,71.1,29.91,WSW,252,5.0,10.0,72,0.00,,SKC,0.00,VWS V13.00,2013-07-27 16:42:00,
2013-07-27 11:47:00,81.0,69.0,29.91,SW,232,10.0,10.0,67,0.00,,SKC,0.00,VWS V13.00,2013-07-27 16:47:00,
2013-07-27 11:52:00,80.8,69.7,29.91,West,276,4.0,10.0,69,0.00,,SKC,0.00,VWS V13.00,2013-07-27 16:52:00,
2013-07-27 11:57:00,80.9,70.6,29.91,West,264,2.0,10.0,71,0.00,,SKC,0.00,VWS V13.00,2013-07-27 16:57:00,
2013-07-27 12:02:00,80.7,69.6,29.91,West,269,6.0,6.0,69,0.00,,SKC,0.00,VWS V13.00,2013-07-27 17:02:00,
2013-07-27 12:07:00,80.6,71.2,29.91,SSW,210,0.0,9.0,73,0.00,,SKC,0.00,VWS V13.00,2013-07-27 17:07:00,
2013-07-27 12:12:00,80.3,70.1,29.90,WSW,257,4.0,10.0,71,0.00,,SKC,0.00,VWS V13.00,2013-07-27 17:12:00,
2013-07-27 12:17:00,80.0,69.3,29.91,WSW,245,6.0,10.0,70,0.00,,SKC,0.00,VWS V13.00,2013-07-27 17:17:00,
2013-07-27 12:22:00,79.7,69.9,29.91,SW,219,4.0,10.0,72,0.00,,SKC,0.00,VWS V13.00,2013-07-27 17:22:00,
2013-07-27 12:27:00,79.7,70.3,29.91,WSW,252,7.0,10.0,73,0.00,,SKC,0.00,VWS V13.00,2013-07-27 17:27:00,
2013-07-27 12:32:00,80.1,70.7,29.91,West,278,5.0,6.0,73,0.00,,SKC,0.00,VWS V13.00,2013-07-27 17:32:00,
2013-07-27 12:37:00,80.8,70.1,29.90,SW,227,6.0,10.0,70,0.00,,SKC,0.00,VWS V13.00,2013-07-27 17:37:00,
2013-07-27 12:42:00,81.3,71.0,29.90,WSW,239,1.0,11.0,71,0.00,,SKC,0.00,VWS V13.00,2013-07-27 17:42:00,
2013-07-27 12:47:00,82.0,70.0,29.90,SW,214,9.0,13.0,67,0.00,,SKC,0.00,VWS V13.00,2013-07-27 17:47:00,
2013-07-27 12:52:00,81.4,67.6,29.90,WSW,245,3.0,13.0,63,0.00,,SKC,0.00,VWS V13.00,2013-07-27 17:52:00,
2013-07-27 12:57:00,81.4,69.0,29.90,WNW,294,8.0,13.0,66,0.00,,SKC,0.00,VWS V13.00,2013-07-27 17:57:00,
2013-07-27 13:02:00,81.7,67.9,29.90,SSW,213,6.0,13.0,63,0.00,,SKC,0.00,VWS V13.00,2013-07-27 18:02:00,
2013-07-27 13:07:00,82.0,69.1,29.89,West,277,5.0,8.0,65,0.00,,SKC,0.00,VWS V13.00,2013-07-27 18:07:00,
2013-07-27 13:12:00,82.3,66.1,29.89,West,275,6.0,10.0,58,0.00,,SKC,0.00,VWS V13.00,2013-07-27 18:12:00,
2013-07-27 13:17:00,82.4,66.2,29.89,WNW,296,0.0,10.0,58,0.00,,SKC,0.00,VWS V13.00,2013-07-27 18:17:00,
2013-07-27 13:22:00,83.0,66.2,29.89,West,259,4.0,11.0,57,0.00,,SKC,0.00,VWS V13.00,2013-07-27 18:22:00,
2013-07-27 13:27:00,82.9,64.6,29.89,West,281,7.0,11.0,54,0.00,,SKC,0.00,VWS V13.00,2013-07-27 18:27:00,
2013-07-27 13:32:00,82.9,64.6,29.89,West,260,11.0,12.0,54,0.00,,SKC,0.00,VWS V13.00,2013-07-27 18:32:00,
2013-07-27 13:37:00,82.4,66.2,29.89,West,266,5.0,11.0,58,0.00,,SKC,0.00,VWS V13.00,2013-07-27 18:37:00,
2013-07-27 13:42:00,82.3,68.0,29.89,WSW,257,6.0,11.0,62,0.00,,SKC,0.00,VWS V13.00,2013-07-27 18:42:00,
2013-07-27 13:47:00,82.1,68.3,29.88,West,271,5.0,11.0,63,0.00,,SKC,0.00,VWS V13.00,2013-07-27 18:47:00,
2013-07-27 13:52:00,82.0,68.2,29.88,WNW,283,5.0,11.0,63,0.00,,SKC,0.00,VWS V13.00,2013-07-27 18:52:00,
2013-07-27 13:57:00,82.2,68.8,29.88,SW,227,5.0,11.0,64,0.00,,SKC,0.00,VWS V13.00,2013-07-27 18:57:00,
2013-07-27 14:02:00,82.0,66.8,29.89,NW,325,7.0,9.0,60,0.00,,SKC,0.00,VWS V13.00,2013-07-27 19:02:00,
2013-07-27 14:07:00,82.0,67.2,29.88,WNW,292,4.0,9.0,61,0.00,,SKC,0.00,VWS V13.00,2013-07-27 19:07:00,
2013-07-27 14:12:00,82.5,67.2,29.88,West,269,4.0,10.0,60,0.00,,SKC,0.00,VWS V13.00,2013-07-27 19:12:00,
2013-07-27 14:17:00,82.7,67.4,29.88,WNW,303,5.0,10.0,60,0.00,,SKC,0.00,VWS V13.00,2013-07-27 19:17:00,
2013-07-27 14:22:00,82.4,69.0,29.88,West,279,6.0,11.0,64,0.00,,SKC,0.00,VWS V13.00,2013-07-27 19:22:00,
2013-07-27 14:27:00,82.5,68.2,29.87,WSW,253,6.0,11.0,62,0.00,,SKC,0.00,VWS V13.00,2013-07-27 19:27:00,
2013-07-27 14:32:00,82.9,69.9,29.87,WSW,254,4.0,4.0,65,0.00,,SKC,0.00,VWS V13.00,2013-07-27 19:32:00,
2013-07-27 14:37:00,82.8,67.5,29.87,WNW,286,4.0,9.0,60,0.00,,SKC,0.00,VWS V13.00,2013-07-27 19:37:00,
2013-07-27 14:42:00,82.3,68.0,29.87,WSW,245,2.0,9.0,62,0.00,,SKC,0.00,VWS V13.00,2013-07-27 19:42:00,
2013-07-27 14:47:00,81.9,67.1,29.87,WSW,247,1.0,9.0,61,0.00,,SKC,0.00,VWS V13.00,2013-07-27 19:47:00,
2013-07-27 14:52:00,81.7,68.3,29.87,West,271,4.0,9.0,64,0.00,,SKC,0.00,VWS V13.00,2013-07-27 19:52:00,
2013-07-27 14:57:00,81.7,67.9,29.87,West,262,1.0,9.0,63,0.00,,SKC,0.00,VWS V13.00,2013-07-27 19:57:00,
2013-07-27 15:02:00,81.6,68.7,29.86,West,268,2.0,6.0,65,0.00,,SKC,0.00,VWS V13.00,2013-07-27 20:02:00,
2013-07-27 15:07:00,81.7,68.8,29.87,WSW,240,1.0,8.0,65,0.00,,SKC,0.00,VWS V13.00,2013-07-27 20:07:00,
2013-07-27 15:12:00,81.8,68.9,29.86,NW,315,3.0,8.0,65,0.00,,SKC,0.00,VWS V13.00,2013-07-27 20:12:00,
2013-07-27 15:17:00,81.7,70.1,29.87,West,280,3.0,9.0,68,0.00,,SKC,0.00,VWS V13.00,2013-07-27 20:17:00,
2013-07-27 15:22:00,81.4,70.7,29.86,SW,219,5.0,9.0,70,0.00,,SKC,0.00,VWS V13.00,2013-07-27 20:22:00,
2013-07-27 15:27:00,81.6,70.9,29.86,SSW,207,6.0,10.0,70,0.00,,SKC,0.00,VWS V13.00,2013-07-27 20:27:00,
2013-07-27 15:32:00,81.9,70.3,29.86,WNW,295,5.0,5.0,68,0.00,,SKC,0.00,VWS V13.00,2013-07-27 20:32:00,
2013-07-27 15:37:00,82.3,71.5,29.86,SW,219,5.0,10.0,70,0.00,,SKC,0.00,VWS V13.00,2013-07-27 20:37:00,
2013-07-27 15:42:00,82.0,70.0,29.86,SW,219,3.0,10.0,67,0.00,,SKC,0.00,VWS V13.00,2013-07-27 20:42:00,
2013-07-27 15:47:00,82.1,71.8,29.85,WSW,248,3.0,10.0,71,0.00,,SKC,0.00,VWS V13.00,2013-07-27 20:47:00,
2013-07-27 15:52:00,82.3,71.1,29.86,West,259,4.0,10.0,69,0.00,,SKC,0.00,VWS V13.00,2013-07-27 20:52:00,
2013-07-27 15:57:00,82.5,68.6,29.86,West,279,5.0,10.0,63,0.00,,SKC,0.00,VWS V13.00,2013-07-27 20:57:00,
2013-07-27 16:02:00,81.9,69.9,29.86,WNW,292,9.0,10.0,67,0.00,,SKC,0.00,VWS V13.00,2013-07-27 21:02:00,
2013-07-27 16:07:00,82.5,69.1,29.86,WSW,257,3.0,10.0,64,0.00,,SKC,0.00,VWS V13.00,2013-07-27 21:07:00,
2013-07-27 16:12:00,82.3,68.5,29.86,WNW,285,4.0,11.0,63,0.00,,SKC,0.00,VWS V13.00,2013-07-27 21:12:00,
2013-07-27 16:17:00,82.0,68.2,29.86,WNW,298,7.0,11.0,63,0.00,,SKC,0.00,VWS V13.00,2013-07-27 21:17:00,
2013-07-27 16:22:00,81.7,68.3,29.86,West,279,2.0,11.0,64,0.00,,SKC,0.00,VWS V13.00,2013-07-27 21:22:00,
2013-07-27 16:27:00,81.4,68.1,29.86,West,267,2.0,11.0,64,0.00,,SKC,0.00,VWS V13.00,2013-07-27 21:27:00,
2013-07-27 16:32:00,81.5,69.5,29.86,NW,312,5.0,6.0,67,0.00,,SKC,0.00,VWS V13.00,2013-07-27 21:32:00,
2013-07-27 16:38:00,81.8,68.0,29.86,WNW,294,6.0,7.0,63,0.00,,SKC,0.00,VWS V13.00,2013-07-27 21:38:00,
2013-07-27 16:43:00,82.2,68.8,29.85,West,273,5.0,9.0,64,0.00,,SKC,0.00,VWS V13.00,2013-07-27 21:43:00,
2013-07-27 16:47:00,82.3,67.5,29.85,West,268,3.0,12.0,61,0.00,,SKC,0.00,VWS V13.00,2013-07-27 21:47:00,
2013-07-27 16:52:00,81.9,67.6,29.85,WNW,295,5.0,12.0,62,0.00,,SKC,0.00,VWS V13.00,2013-07-27 21:52:00,
2013-07-27 16:57:00,81.3,68.0,29.85,WNW,298,4.0,12.0,64,0.00,,SKC,0.00,VWS V13.00,2013-07-27 21:57:00,
2013-07-27 17:02:00,81.5,68.2,29.85,WNW,292,5.0,6.0,64,0.00,,SKC,0.00,VWS V13.00,2013-07-27 22:02:00,
2013-07-27 17:07:00,82.2,69.7,29.85,WSW,250,1.0,8.0,66,0.00,,SKC,0.00,VWS V13.00,2013-07-27 22:07:00,
2013-07-27 17:12:00,82.6,68.7,29.85,WNW,288,3.0,8.0,63,0.00,,SKC,0.00,VWS V13.00,2013-07-27 22:12:00,
2013-07-27 17:17:00,82.6,68.7,29.85,WSW,250,5.0,8.0,63,0.00,,SKC,0.00,VWS V13.00,2013-07-27 22:17:00,
2013-07-27 17:22:00,82.0,69.1,29.85,NW,311,5.0,8.0,65,0.00,,SKC,0.00,VWS V13.00,2013-07-27 22:22:00,
2013-07-27 17:23:00,81.9,69.0,29.85,WNW,296,5.0,8.0,65,0.00,,SKC,0.00,VWS V13.00,2013-07-27 22:23:00,
2013-07-27 17:28:00,81.1,68.2,29.86,West,276,0.0,8.0,65,0.00,,SKC,0.00,VWS V13.00,2013-07-27 22:28:00,
2013-07-27 17:33:00,80.5,68.1,29.86,West,269,2.0,3.0,66,0.00,,SKC,0.00,VWS V13.00,2013-07-27 22:33:00,
2013-07-27 17:38:00,80.5,69.4,29.85,WNW,294,4.0,5.0,69,0.00,,SKC,0.00,VWS V13.00,2013-07-27 22:38:00,
2013-07-27 17:43:00,81.1,69.6,29.86,NW,319,5.0,7.0,68,0.00,,SKC,0.00,VWS V13.00,2013-07-27 22:43:00,
2013-07-27 17:48:00,81.6,70.4,29.85,WSW,240,1.0,7.0,69,0.00,,SKC,0.00,VWS V13.00,2013-07-27 22:48:00,
2013-07-27 17:53:00,81.3,68.9,29.85,WSW,237,0.0,7.0,66,0.00,,SKC,0.00,VWS V13.00,2013-07-27 22:53:00,
2013-07-27 17:57:00,80.8,69.3,29.85,West,267,4.0,7.0,68,0.00,,SKC,0.00,VWS V13.00,2013-07-27 22:57:00,
2013-07-27 18:02:00,80.2,69.9,29.86,West,276,1.0,4.0,71,0.00,,SKC,0.00,VWS V13.00,2013-07-27 23:02:00,
2013-07-27 18:07:00,79.8,70.4,29.85,West,261,0.0,5.0,73,0.00,,SKC,0.00,VWS V13.00,2013-07-27 23:07:00,
2013-07-27 18:12:00,79.6,69.8,29.85,WNW,287,1.0,5.0,72,0.00,,SKC,0.00,VWS V13.00,2013-07-27 23:12:00,
2013-07-27 18:17:00,79.3,69.5,29.85,West,273,4.0,6.0,72,0.00,,SKC,0.00,VWS V13.00,2013-07-27 23:17:00,
2013-07-27 18:22:00,78.9,69.1,29.86,WSW,246,0.0,6.0,72,0.00,,SKC,0.00,VWS V13.00,2013-07-27 23:22:00,
2013-07-27 18:27:00,78.6,69.6,29.86,West,267,0.0,6.0,74,0.00,,SKC,0.00,VWS V13.00,2013-07-27 23:27:00,
2013-07-27 18:32:00,78.3,69.3,29.86,West,259,0.0,4.0,74,0.00,,SKC,0.00,VWS V13.00,2013-07-27 23:32:00,
2013-07-27 18:37:00,77.9,69.3,29.86,West,264,0.0,4.0,75,0.00,,SKC,0.00,VWS V13.00,2013-07-27 23:37:00,
2013-07-27 18:42:00,77.8,70.0,29.86,West,264,0.0,4.0,77,0.00,,SKC,0.00,VWS V13.00,2013-07-27 23:42:00,
2013-07-27 18:47:00,77.6,70.2,29.86,West,264,0.0,4.0,78,0.00,,SKC,0.00,VWS V13.00,2013-07-27 23:47:00,
2013-07-27 18:52:00,77.5,70.5,29.87,West,263,0.0,4.0,79,0.00,,SKC,0.00,VWS V13.00,2013-07-27 23:52:00,
2013-07-27 18:57:00,77.5,70.5,29.86,West,263,0.0,4.0,79,0.00,,SKC,0.00,VWS V13.00,2013-07-27 23:57:00,
2013-07-27 19:02:00,77.4,70.0,29.87,West,263,0.0,0.0,78,0.00,,SKC,0.00,VWS V13.00,2013-07-28 00:02:00,
2013-07-27 19:07:00,77.2,70.2,29.87,West,263,0.0,2.0,79,0.00,,SKC,0.00,VWS V13.00,2013-07-28 00:07:00,
2013-07-27 19:12:00,77.1,69.7,29.87,West,263,0.0,2.0,78,0.00,,SKC,0.00,VWS V13.00,2013-07-28 00:12:00,
2013-07-27 19:17:00,77.1,70.1,29.87,West,263,0.0,2.0,79,0.00,,SKC,0.00,VWS V13.00,2013-07-28 00:17:00,
2013-07-27 19:22:00,77.1,70.5,29.87,West,263,0.0,2.0,80,0.00,,SKC,0.00,VWS V13.00,2013-07-28 00:22:00,
2013-07-27 19:27:00,76.9,70.6,29.87,West,263,0.0,2.0,81,0.00,,SKC,0.00,VWS V13.00,2013-07-28 00:27:00,
2013-07-27 19:32:00,76.4,70.9,29.87,West,263,0.0,0.0,83,0.00,,SKC,0.00,VWS V13.00,2013-07-28 00:32:00,
2013-07-27 19:37:00,75.7,70.2,29.88,West,263,0.0,0.0,83,0.00,,SKC,0.00,VWS V13.00,2013-07-28 00:37:00,
2013-07-27 19:42:00,75.2,70.0,29.88,West,263,0.0,0.0,84,0.00,,SKC,0.00,VWS V13.00,2013-07-28 00:42:00,
2013-07-27 19:47:00,74.8,70.0,29.88,West,263,0.0,0.0,85,0.00,,SKC,0.00,VWS V13.00,2013-07-28 00:47:00,
2013-07-27 19:52:00,74.4,69.9,29.88,West,263,0.0,0.0,86,0.00,,SKC,0.00,VWS V13.00,2013-07-28 00:52:00,
2013-07-27 19:57:00,74.0,69.6,29.88,West,263,0.0,0.0,86,0.00,,SKC,0.00,VWS V13.00,2013-07-28 00:57:00,
2013-07-27 20:02:00,73.7,69.6,29.88,West,263,0.0,0.0,87,0.00,,SKC,0.00,VWS V13.00,2013-07-28 01:02:00,
2013-07-27 20:07:00,73.4,69.6,29.88,West,263,0.0,0.0,88,0.00,,SKC,0.00,VWS V13.00,2013-07-28 01:07:00,
2013-07-27 20:12:00,73.0,69.2,29.88,West,263,0.0,1.0,88,0.00,,SKC,0.00,VWS V13.00,2013-07-28 01:12:00,
2013-07-27 20:17:00,72.7,69.3,29.88,West,263,0.0,1.0,89,0.00,,SKC,0.00,VWS V13.00,2013-07-28 01:17:00,
2013-07-27 20:22:00,72.6,69.2,29.88,West,263,0.0,1.0,89,0.00,,SKC,0.00,VWS V13.00,2013-07-28 01:22:00,
2013-07-27 20:27:00,72.6,69.2,29.88,West,263,0.0,1.0,89,0.00,,SKC,0.00,VWS V13.00,2013-07-28 01:27:00,
2013-07-27 20:32:00,72.8,69.7,29.88,West,263,0.0,0.0,90,0.00,,SKC,0.00,VWS V13.00,2013-07-28 01:32:00,
2013-07-27 20:37:00,72.8,69.7,29.88,West,263,0.0,0.0,90,0.00,,SKC,0.00,VWS V13.00,2013-07-28 01:37:00,
2013-07-27 20:42:00,72.8,69.7,29.88,West,263,0.0,0.0,90,0.00,,SKC,0.00,VWS V13.00,2013-07-28 01:42:00,
2013-07-27 20:47:00,72.7,69.6,29.88,West,263,0.0,0.0,90,0.00,,SKC,0.00,VWS V13.00,2013-07-28 01:47:00,
2013-07-27 20:52:00,72.6,69.2,29.88,West,263,0.0,0.0,89,0.00,,SKC,0.00,VWS V13.00,2013-07-28 01:52:00,
2013-07-27 20:57:00,72.6,69.2,29.89,West,263,0.0,0.0,89,0.00,,SKC,0.00,VWS V13.00,2013-07-28 01:57:00,
2013-07-27 21:02:00,72.6,69.2,29.88,West,263,0.0,0.0,89,0.00,,SKC,0.00,VWS V13.00,2013-07-28 02:02:00,
2013-07-27 21:07:00,72.6,69.2,29.89,West,263,0.0,0.0,89,0.00,,SKC,0.00,VWS V13.00,2013-07-28 02:07:00,
2013-07-27 21:12:00,72.5,69.1,29.88,West,263,0.0,0.0,89,0.00,,SKC,0.00,VWS V13.00,2013-07-28 02:12:00,
2013-07-27 21:17:00,72.5,69.1,29.89,West,263,0.0,0.0,89,0.00,,SKC,0.00,VWS V13.00,2013-07-28 02:17:00,
2013-07-27 21:22:00,72.4,69.3,29.89,West,263,0.0,0.0,90,0.00,,SKC,0.00,VWS V13.00,2013-07-28 02:22:00,
2013-07-27 21:27:00,72.2,69.1,29.89,West,263,0.0,0.0,90,0.00,,SKC,0.00,VWS V13.00,2013-07-28 02:27:00,
2013-07-27 21:32:00,72.1,69.0,29.89,West,263,0.0,0.0,90,0.00,,SKC,0.00,VWS V13.00,2013-07-28 02:32:00,
2013-07-27 21:37:00,72.0,69.2,29.89,West,263,0.0,0.0,91,0.00,,SKC,0.00,VWS V13.00,2013-07-28 02:37:00,
2013-07-27 21:42:00,71.8,69.0,29.89,West,263,0.0,0.0,91,0.00,,SKC,0.00,VWS V13.00,2013-07-28 02:42:00,
2013-07-27 21:47:00,71.7,68.9,29.89,West,263,0.0,0.0,91,0.00,,SKC,0.00,VWS V13.00,2013-07-28 02:47:00,
2013-07-27 21:52:00,71.6,68.8,29.89,West,263,0.0,0.0,91,0.00,,SKC,0.00,VWS V13.00,2013-07-28 02:52:00,
2013-07-27 21:57:00,71.4,68.6,29.90,West,263,0.0,0.0,91,0.00,,SKC,0.00,VWS V13.00,2013-07-28 02:57:00,
2013-07-27 22:02:00,71.4,69.0,29.89,West,263,0.0,0.0,92,0.00,,SKC,0.00,VWS V13.00,2013-07-28 03:02:00,
2013-07-27 22:07:00,71.2,68.8,29.90,West,263,0.0,0.0,92,0.00,,SKC,0.00,VWS V13.00,2013-07-28 03:07:00,
2013-07-27 22:12:00,71.0,68.6,29.90,West,263,0.0,0.0,92,0.00,,SKC,0.00,VWS V13.00,2013-07-28 03:12:00,
2013-07-27 22:17:00,70.8,68.7,29.90,West,263,0.0,0.0,93,0.00,,SKC,0.00,VWS V13.00,2013-07-28 03:17:00,
2013-07-27 22:22:00,70.6,68.5,29.90,West,263,0.0,0.0,93,0.00,,SKC,0.00,VWS V13.00,2013-07-28 03:22:00,
2013-07-27 22:27:00,70.6,68.8,29.89,West,263,0.0,0.0,94,0.00,,SKC,0.00,VWS V13.00,2013-07-28 03:27:00,
2013-07-27 22:32:00,70.6,68.8,29.89,West,263,0.0,0.0,94,0.00,,SKC,0.00,VWS V13.00,2013-07-28 03:32:00,
2013-07-27 22:37:00,70.5,68.7,29.89,West,263,0.0,0.0,94,0.00,,SKC,0.00,VWS V13.00,2013-07-28 03:37:00,
2013-07-27 22:42:00,70.5,68.7,29.89,West,263,0.0,0.0,94,0.00,,SKC,0.00,VWS V13.00,2013-07-28 03:42:00,
2013-07-27 22:47:00,70.6,68.8,29.89,West,263,0.0,0.0,94,0.00,,SKC,0.00,VWS V13.00,2013-07-28 03:47:00,
2013-07-27 22:52:00,70.7,68.9,29.89,West,263,0.0,0.0,94,0.00,,SKC,0.00,VWS V13.00,2013-07-28 03:52:00,
2013-07-27 22:57:00,70.7,68.9,29.90,West,263,0.0,0.0,94,0.00,,SKC,0.00,VWS V13.00,2013-07-28 03:57:00,
2013-07-27 23:01:00,70.8,69.0,29.90,West,263,0.0,0.0,94,0.00,,SKC,0.00,VWS V13.00,2013-07-28 04:01:00,
2013-07-27 23:06:00,70.9,69.1,29.89,West,263,0.0,0.0,94,0.00,,SKC,0.00,VWS V13.00,2013-07-28 04:06:00,
2013-07-27 23:11:00,71.0,69.5,29.89,West,263,0.0,0.0,95,0.00,,SKC,0.00,VWS V13.00,2013-07-28 04:11:00,
2013-07-27 23:16:00,70.9,69.4,29.90,West,263,0.0,0.0,95,0.00,,SKC,0.00,VWS V13.00,2013-07-28 04:16:00,
2013-07-27 23:21:00,70.8,69.3,29.90,West,263,0.0,0.0,95,0.00,,SKC,0.00,VWS V13.00,2013-07-28 04:21:00,
2013-07-27 23:26:00,70.9,69.4,29.89,West,263,0.0,0.0,95,0.00,,SKC,0.00,VWS V13.00,2013-07-28 04:26:00,
2013-07-27 23:31:00,70.9,69.4,29.89,West,263,0.0,0.0,95,0.00,,SKC,0.00,VWS V13.00,2013-07-28 04:31:00,
2013-07-27 23:36:00,71.0,69.5,29.89,West,263,0.0,0.0,95,0.00,,SKC,0.00,VWS V13.00,2013-07-28 04:36:00,
2013-07-27 23:41:00,71.1,69.3,29.89,West,263,0.0,0.0,94,0.00,,SKC,0.00,VWS V13.00,2013-07-28 04:41:00,
2013-07-27 23:46:00,71.2,69.4,29.89,West,263,0.0,0.0,94,0.00,,SKC,0.00,VWS V13.00,2013-07-28 04:46:00,
2013-07-27 23:51:00,71.1,69.3,29.89,West,263,0.0,0.0,94,0.00,,SKC,0.00,VWS V13.00,2013-07-28 04:51:00,
2013-07-27 23:56:00,71.0,69.2,29.89,West,263,0.0,0.0,94,0.00,,SKC,0.00,VWS V13.00,2013-07-28 04:56:00,